Date String (YYYY-MM-DD hh:mm:ss) UTC,Instrument flags,absolute air pressure of the measurement (hPa),sample flow rate (lpm),inlet stack bypass flow (lpm),air temperature of the measurement (°C),ambient temperature measured by the external sensor (°C),aerosol sample conditioner tube jacket temperature (°C),OPC LED temperature (°C),internal box temperature (°C),relative humidity of the measurement (%),span deviation,mass concentration of particles derived from Lorenz-Mie calculation of OPC scattering (μg/m³),mass concentration of particles derived from Lorenz-Mie calculation of OPC scattering (μg/m³),mass concentration of particles derived from Lorenz-Mie calculation of OPC scattering (μg/m³)
DateTimeUTC,F1_M11,P_M11,Q1_M11,Q2_M11,T1_M11,T2_M11,T3_M11,T4_M11,T5_M11,U1_M11,ZSPAN_M11,X2_M11,X0_M11,X1_M11
2023-08-07 10:00:00,SystemResetWarning,0834.5,5.02,000.00,030.0,028.5,000.0,038.7,031.5,28.6,0000.0,0004.92,0008.01,0004.47
2023-08-07 10:01:00,SystemResetWarning,0834.5,5.00,000.00,030.0,028.5,000.0,038.7,031.5,28.7,0000.0,0004.92,0008.01,0004.48
2023-08-07 10:02:00,SystemResetWarning,0834.5,4.99,000.00,030.0,028.5,000.0,038.7,031.5,28.5,0000.0,0004.94,0008.68,0004.47
2023-08-07 10:03:00,SystemResetWarning,0834.4,4.99,000.00,030.0,028.5,000.0,038.7,031.5,28.6,0000.0,0004.94,0008.57,0004.46
2023-08-07 10:04:00,SystemResetWarning,0834.4,5.00,000.00,030.0,028.5,000.0,038.7,031.5,28.7,0000.0,0004.93,0008.45,0004.44
2023-08-07 10:05:00,SystemResetWarning,0834.5,5.00,000.00,030.0,028.5,000.0,038.7,031.5,28.9,0000.0,0004.92,0008.45,0004.41
2023-08-07 10:06:00,SystemResetWarning,0834.5,5.00,000.00,030.0,028.5,000.0,038.7,031.5,28.9,0000.0,0004.86,0008.34,0004.37
2023-08-07 10:07:00,SystemResetWarning,0834.5,5.00,000.00,030.0,028.5,000.0,038.7,031.5,28.8,0000.0,0004.81,0008.32,0004.33
2023-08-07 10:08:00,SystemResetWarning,0834.4,5.00,000.00,030.0,028.5,000.0,038.7,031.5,28.7,0000.0,0004.77,0008.28,0004.31
2023-08-07 10:09:00,SystemResetWarning,0834.4,5.00,000.00,030.0,028.5,000.0,038.7,031.5,28.7,0000.0,0004.76,0008.27,0004.29
2023-08-07 10:10:00,SystemResetWarning,0834.3,5.00,000.00,030.0,028.5,000.0,038.7,031.5,28.6,0000.0,0004.75,0008.42,0004.26
2023-08-07 10:11:00,SystemResetWarning,0834.4,5.00,000.00,030.0,028.5,000.0,038.7,031.5,28.6,0000.0,0004.76,0008.56,0004.25
2023-08-07 10:12:00,SystemResetWarning,0834.5,5.00,000.00,030.0,028.5,000.0,038.7,031.5,28.7,0000.0,0004.78,0008.63,0004.27
2023-08-07 10:13:00,SystemResetWarning,0834.7,5.00,000.00,030.0,028.5,000.0,038.7,031.5,28.6,0000.0,0004.83,0008.08,0004.34
2023-08-07 10:14:00,SystemResetWarning,0835.1,5.00,000.00,030.0,028.5,000.0,038.7,031.5,28.7,0000.0,0004.87,0007.96,0004.38
2023-08-07 10:15:00,SystemResetWarning,0835.1,5.00,000.00,030.0,028.5,000.0,038.7,031.5,28.8,0000.0,0004.89,0008.00,0004.41
2023-08-07 10:16:00,SystemResetWarning,0835.0,5.00,000.00,030.0,028.5,000.0,038.7,031.5,28.9,0000.0,0004.93,0008.06,0004.47
2023-08-07 10:17:00,SystemResetWarning,0835.0,5.00,000.00,030.0,028.5,000.0,038.7,031.5,28.9,-000.0,0005.03,0008.23,0004.57
2023-08-07 10:18:00,SystemResetWarning,0835.0,5.00,000.00,030.0,028.5,000.0,038.7,031.5,28.6,0000.1,0005.20,0008.45,0004.70
2023-08-07 10:19:00,SystemResetWarning,0835.0,5.00,000.00,030.0,028.5,000.0,038.7,031.5,28.3,0000.0,0005.36,0008.84,0004.84
2023-08-07 10:20:00,SystemResetWarning,0834.6,5.01,000.00,030.0,028.5,000.0,038.7,031.5,28.2,-000.1,0005.54,0009.05,0005.02
2023-08-07 10:21:00,SystemResetWarning,0834.6,5.00,000.00,030.0,028.5,000.0,038.7,031.5,28.3,0000.0,0005.71,0009.10,0005.18
2023-08-07 10:22:00,SystemResetWarning,0834.5,5.00,000.00,030.0,028.5,000.0,038.7,031.5,28.3,0000.6,0005.87,0009.18,0005.34
2023-08-07 10:23:00,SystemResetWarning,0834.6,5.00,000.00,030.0,028.6,000.0,038.7,031.5,28.6,0001.0,0006.04,0009.34,0005.49
2023-08-07 10:24:00,SystemResetWarning,0835.0,5.00,000.00,030.0,028.5,000.0,038.7,031.5,28.8,0000.5,0006.16,0009.55,0005.60
2023-08-07 10:25:00,SystemResetWarning,0835.1,5.00,000.00,030.0,028.5,000.0,038.7,031.5,28.6,0000.3,0006.24,0010.05,0005.71
2023-08-07 10:26:00,SystemResetWarning,0835.0,5.00,000.00,030.0,028.5,000.0,038.7,031.5,28.5,0000.3,0006.36,0010.11,0005.85
2023-08-07 10:27:00,SystemResetWarning,0834.9,5.00,000.00,030.0,028.5,000.0,038.7,031.5,28.5,-000.0,0006.48,0010.20,0005.98
2023-08-07 10:28:00,SystemResetWarning,0835.0,5.00,000.00,030.0,028.5,000.0,038.7,031.5,28.4,-000.4,0006.59,0010.74,0006.07
2023-08-07 10:29:00,SystemResetWarning,0835.0,5.00,000.00,030.0,028.5,000.0,038.7,031.5,28.3,-000.3,0006.61,0010.79,0006.10
2023-08-07 10:30:00,SystemResetWarning,0834.7,5.00,000.00,030.0,028.5,000.0,038.7,031.5,28.3,-000.5,0006.60,0010.46,0006.13
2023-08-07 10:31:00,SystemResetWarning,0834.7,5.00,000.00,030.0,028.5,000.0,038.7,031.5,28.4,-000.3,0006.55,0010.53,0006.11
2023-08-07 10:32:00,SystemResetWarning,0834.6,5.00,000.00,030.0,028.5,000.0,038.7,031.5,28.4,-000.3,0006.47,0010.84,0006.06
2023-08-07 10:33:00,SystemResetWarning,0835.0,5.00,000.00,030.0,028.5,000.0,038.7,031.5,28.6,-000.6,0006.42,0011.25,0006.02
2023-08-07 10:34:00,SystemResetWarning,0835.0,5.00,000.00,030.0,028.5,000.0,038.7,031.5,28.6,-001.1,0006.37,0011.15,0005.96
2023-08-07 10:35:00,SystemResetWarning,0834.7,5.00,000.00,030.0,028.5,000.0,038.7,031.5,28.5,-001.1,0006.29,0011.05,0005.87
2023-08-07 10:36:00,SystemResetWarning,0835.0,5.00,000.00,030.0,028.5,000.0,038.7,031.5,28.4,-000.9,0006.25,0010.48,0005.83
2023-08-07 10:37:00,SystemResetWarning,0835.0,5.00,000.00,030.0,028.5,000.0,038.7,031.5,28.4,-000.8,0006.21,0010.45,0005.79
2023-08-07 10:38:00,SystemResetWarning,0834.8,5.00,000.00,030.0,028.5,000.0,038.7,031.5,28.2,-000.4,0006.15,0010.40,0005.72
2023-08-07 10:39:00,SystemResetWarning,0834.5,5.00,000.00,030.0,028.5,000.0,038.7,031.5,28.3,-000.4,0006.06,0009.83,0005.64
2023-08-07 10:40:00,SystemResetWarning,0834.5,5.00,000.00,030.0,028.5,000.0,038.7,031.5,28.2,-001.0,0005.99,0009.66,0005.57
2023-08-07 10:41:00,SystemResetWarning,0834.5,5.00,000.00,030.0,028.5,000.0,038.7,031.5,27.9,-001.1,0005.89,0009.89,0005.45
2023-08-07 10:42:00,SystemResetWarning,0834.5,5.00,000.00,030.0,028.6,000.0,038.7,031.5,27.7,-000.9,0005.83,0009.96,0005.35
2023-08-07 10:43:00,SystemResetWarning,0834.5,5.01,000.00,030.0,028.6,000.0,038.7,031.5,27.5,-001.0,0005.78,0009.72,0005.29
2023-08-07 10:44:00,SystemResetWarning,0834.4,5.01,000.00,030.0,028.6,000.0,038.7,031.5,27.5,-000.8,0005.70,0008.96,0005.22
2023-08-07 10:45:00,SystemResetWarning,0834.4,5.00,000.00,030.0,028.6,000.0,038.7,031.5,27.5,-000.7,0005.61,0008.82,0005.15
2023-08-07 10:46:00,SystemResetWarning,0834.3,4.99,000.00,030.0,028.6,000.0,038.7,031.5,27.4,-000.9,0005.58,0008.78,0005.12
2023-08-07 10:47:00,SystemResetWarning,0834.3,4.99,000.00,030.0,028.6,000.0,038.7,031.6,27.3,-001.3,0005.54,0008.88,0005.09
2023-08-07 10:48:00,SystemResetWarning,0834.4,5.00,000.00,030.0,028.6,000.0,038.7,031.6,27.3,-001.1,0005.49,0008.95,0005.01
2023-08-07 10:49:00,SystemResetWarning,0834.6,5.00,000.00,030.0,028.6,000.0,038.7,031.6,27.3,-001.4,0005.46,0008.99,0004.96
2023-08-07 10:50:00,SystemResetWarning,0834.5,5.00,000.00,030.0,028.6,000.0,038.7,031.6,27.2,-001.1,0005.46,0009.11,0004.93
2023-08-07 10:51:00,SystemResetWarning,0834.3,5.00,000.00,030.0,028.6,000.0,038.7,031.6,27.2,-000.4,0005.40,0009.04,0004.89
2023-08-07 10:52:00,SystemResetWarning,0834.3,5.00,000.00,030.1,028.7,000.0,038.7,031.6,27.2,-000.1,0005.36,0008.87,0004.87
2023-08-07 10:53:00,SystemResetWarning,0834.5,5.00,000.00,030.1,028.7,000.0,038.7,031.6,27.2,-000.3,0005.33,0008.36,0004.88
2023-08-07 10:54:00,SystemResetWarning,0834.5,5.00,000.00,030.1,028.7,000.0,038.7,031.6,27.3,-000.5,0005.35,0008.33,0004.90
2023-08-07 10:55:00,SystemResetWarning,0834.5,5.00,000.00,030.1,028.7,000.0,038.8,031.6,27.3,-000.7,0005.38,0008.37,0004.93
2023-08-07 10:56:00,SystemResetWarning,0834.5,5.01,000.00,030.1,028.7,000.0,038.8,031.6,27.3,-000.9,0005.43,0008.45,0004.98
2023-08-07 10:57:00,SystemResetWarning,0834.5,5.00,000.00,030.1,028.7,000.0,038.8,031.5,27.3,-001.1,0005.44,0008.65,0005.00
2023-08-07 10:58:00,SystemResetWarning,0834.5,5.00,000.00,030.1,028.6,000.0,038.8,031.5,27.4,-001.1,0005.43,0009.17,0004.98
2023-08-07 10:59:00,SystemResetWarning,0834.5,4.99,000.00,030.1,028.6,000.0,038.8,031.5,27.4,-001.7,0005.43,0009.06,0004.98
